Milwaukee, WI

5:13 AM CDT on August 28, 2016 (GMT -0500)
Gen Mitchell International

Weather History for KMKE - March, 2014

Change the Weather History Date:

Wednesday, March 26, 2014

  Actual Average Record
Temperature  
Mean Temperature 27 °F 38 °F  
Max Temperature 38 °F 46 °F 80 °F (2007)
Min Temperature 15 °F 31 °F 1 °F (1960)
Degree Days  
Heating Degree Days 38 27  
Month to date heating degree days 984 802  
Since 1 July heating degree days 6640 5782  
Cooling Degree Days 0 0  
Month to date cooling degree days 0 0  
Year to date cooling degree days 0 0  
Moisture  
Dew Point 9 °F    
Average Humidity 50    
Maximum Humidity 64    
Minimum Humidity 35    
Precipitation  
Precipitation 0.00 in 0.09 in 1.68 in (1976)
Month to date precipitation 0.51 1.81  
Year to date precipitation 3.25 5.22  
Snow  
Snow 0.00 in 0.10 in 5.00 in (1930)
Month to date snowfall 6.2 6.3  
Since 1 July snowfall 63.0 44.1  
Snow Depth 0.00 in    
Sea Level Pressure  
Sea Level Pressure 30.21 in    
Wind  
Wind Speed 10 mph (SSW)    
Max Wind Speed 18 mph    
Max Gust Speed 23 mph    
Visibility 10 miles    
Events      
T = Trace of Precipitation, MM = Missing Value Source: NWS Daily Summary

Daily Weather History Graph

Daily Weather History Graph

Search for Another Location

Airport or City:

Trip Planner

Search our weather history database for the weather conditions in past years. The results will help you decide how hot, cold, wet, or windy it might be!

Date:

Astronomy

Mar. 26, 2014 Rise Set
Actual Time 6:44 AM CDT 7:10 PM CDT
Civil Twilight 6:15 AM CDT 7:39 PM CDT
Nautical Twilight 5:42 AM CDT 8:12 PM CDT
Astronomical Twilight 5:07 AM CDT 8:47 PM CDT
Moon 3:59 AM CDT (3/26) 2:43 PM CDT (3/26)
Length of Visible Light 13h 23m
Length of Day
12h 26m
Waning Crescent, 21% of the Moon is Illuminated
Mar 26
Waning Crescent
Mar 30
New
Apr 7
First Quarter
Apr 15
Full
Apr 22
Last Quarter

Hourly Weather History & Observations

Time (CDT) Temp. Windchill Dew Point Humidity Pressure Visibility Wind Dir Wind Speed Gust Speed Precip Events Conditions
12:52 AM 18.0 °F 11.1 °F 1.0 °F 48% 30.27 in 10.0 mi WNW 4.6 mph - N/A   Clear
1:52 AM 17.1 °F 11.7 °F 1.9 °F 52% 30.28 in 10.0 mi West 3.5 mph - N/A   Clear
2:52 AM 16.0 °F 10.4 °F 3.0 °F 57% 30.28 in 10.0 mi West 3.5 mph - N/A   Clear
3:52 AM 16.0 °F 10.4 °F 3.0 °F 57% 30.28 in 10.0 mi West 3.5 mph - N/A   Clear
4:52 AM 15.1 °F 9.4 °F 3.9 °F 61% 30.28 in 10.0 mi WSW 3.5 mph - N/A   Clear
5:52 AM 15.1 °F 9.4 °F 3.9 °F 61% 30.30 in 10.0 mi SW 3.5 mph - N/A   Clear
6:52 AM 15.1 °F 7.7 °F 3.9 °F 61% 30.32 in 10.0 mi WSW 4.6 mph - N/A   Clear
7:52 AM 18.0 °F 11.1 °F 6.1 °F 60% 30.32 in 10.0 mi SW 4.6 mph - N/A   Partly Cloudy
8:52 AM 21.0 °F 9.9 °F 3.9 °F 48% 30.34 in 10.0 mi SSW 10.4 mph - N/A   Partly Cloudy
9:52 AM 24.1 °F 14.4 °F 3.9 °F 42% 30.33 in 10.0 mi WSW 9.2 mph - N/A   Partly Cloudy
10:52 AM 25.0 °F 14.2 °F 3.9 °F 41% 30.32 in 10.0 mi South 11.5 mph - N/A   Partly Cloudy
11:52 AM 28.0 °F 17.0 °F 6.1 °F 39% 30.30 in 10.0 mi South 13.8 mph 19.6 mph N/A   Scattered Clouds
12:52 PM 30.0 °F 19.1 °F 6.1 °F 36% 30.27 in 10.0 mi SW 15.0 mph 21.9 mph N/A   Partly Cloudy
1:52 PM 32.0 °F 23.0 °F 8.1 °F 37% 30.23 in 10.0 mi South 11.5 mph 18.4 mph N/A   Mostly Cloudy
2:52 PM 35.1 °F 28.6 °F 10.9 °F 37% 30.19 in 10.0 mi SSW 8.1 mph 23.0 mph N/A   Mostly Cloudy
3:52 PM 34.0 °F 24.2 °F 12.9 °F 42% 30.17 in 10.0 mi South 15.0 mph - N/A   Scattered Clouds
4:52 PM 35.1 °F 25.5 °F 15.1 °F 44% 30.14 in 10.0 mi SSE 15.0 mph 21.9 mph N/A   Mostly Cloudy
5:52 PM 33.1 °F 23.9 °F 16.0 °F 50% 30.10 in 10.0 mi SSE 12.7 mph - N/A   Mostly Cloudy
6:52 PM 33.1 °F 23.0 °F 18.0 °F 54% 30.09 in 10.0 mi SSE 15.0 mph - N/A   Mostly Cloudy
7:52 PM 33.1 °F 23.4 °F 19.9 °F 59% 30.06 in 10.0 mi SSE 13.8 mph - N/A   Mostly Cloudy
8:52 PM 33.1 °F 25.5 °F 23.0 °F 66% 30.04 in 10.0 mi SSE 9.2 mph - N/A   Mostly Cloudy
9:52 PM 34.0 °F 26.6 °F 23.0 °F 64% 30.01 in 10.0 mi South 9.2 mph - N/A   Mostly Cloudy
10:52 PM 37.0 °F 28.5 °F 18.0 °F 46% 29.99 in 10.0 mi South 13.8 mph - N/A   Overcast
11:52 PM 37.0 °F 29.8 °F 18.0 °F 46% 29.97 in 10.0 mi South 10.4 mph - N/A   Overcast